When you browse on this site, cookies collect data to enhance your experience and personalize the content and advertising you see.
Visit our Privacy Policy to learn more. By continuing to use the site, you agree to this use of cookies and data.
  • In France
  • List of Countries
  • For 7 days
  • Water Temperature
  • Weather Map
  • Weather Widgets
  • user-avatar
    Login

    Hourly Weather Emona

    Today, 23 January, Thursday

    Time Temperature Precipitation Wind Pressure Humidity
    00:00 +1°C° 0 mm 4 mps 764 mmHg 56%
    01:00 +1°C° 0 mm 4 mps 764 mmHg 54%
    02:00 +1°C° 0 mm 4 mps 764 mmHg 52%
    03:00 +1°C° 0 mm 4 mps 765 mmHg 54%
    04:00 +1°C° 0 mm 5 mps 765 mmHg 57%
    05:00 0°C° 0 mm 5 mps 766 mmHg 59%
    06:00 0°C° 0 mm 5 mps 767 mmHg 61%
    07:00 0°C° 0 mm 5 mps 768 mmHg 64%
    08:00 0°C° 0 mm 4 mps 769 mmHg 66%
    09:00 +1°C° 0 mm 5 mps 770 mmHg 59%
    10:00 +2°C° 0 mm 6 mps 771 mmHg 53%
    11:00 +4°C° 0 mm 7 mps 771 mmHg 46%
    12:00 +4°C° 0 mm 6 mps 771 mmHg 44%
    13:00 +5°C° 0 mm 6 mps 771 mmHg 42%
    14:00 +6°C° 0 mm 5 mps 771 mmHg 40%
    15:00 +5°C° 0 mm 5 mps 772 mmHg 45%
    16:00 +5°C° 0 mm 4 mps 772 mmHg 51%
    17:00 +4°C° 0 mm 4 mps 772 mmHg 56%
    18:00 +3°C° 0 mm 4 mps 772 mmHg 60%
    19:00 +1°C° 0 mm 4 mps 773 mmHg 63%
    20:00 0°C° 0 mm 4 mps 773 mmHg 67%
    21:00 +1°C° 0 mm 3 mps 773 mmHg 68%
    22:00 +1°C° 0 mm 3 mps 774 mmHg 68%
    23:00 +1°C° 0 mm 2 mps 774 mmHg 69%

    Tomorrow, 24 January, Friday

    Time Temperature Precipitation Wind Pressure Humidity
    00:00 +1°C° 0 mm 2 mps 774 mmHg 70%
    01:00 +1°C° 0 mm 2 mps 774 mmHg 71%
    02:00 +1°C° 0 mm 2 mps 774 mmHg 72%
    03:00 -1°C° 0 mm 2 mps 774 mmHg 72%
    04:00 +1°C° 0 mm 1 mps 774 mmHg 73%
    05:00 +1°C° 0 mm 1 mps 773 mmHg 73%
    06:00 +1°C° 0 mm 1 mps 774 mmHg 72%
    07:00 +1°C° 0 mm 1 mps 774 mmHg 70%
    08:00 +1°C° 0 mm 1 mps 774 mmHg 69%
    09:00 +2°C° 0 mm 2 mps 774 mmHg 60%
    10:00 +4°C° 0 mm 2 mps 774 mmHg 51%
    11:00 +5°C° 0 mm 3 mps 773 mmHg 43%
    12:00 +6°C° 0 mm 4 mps 773 mmHg 42%
    13:00 +6°C° 0 mm 4 mps 772 mmHg 41%
    14:00 +7°C° 0 mm 5 mps 772 mmHg 40%
    15:00 +6°C° 0 mm 4 mps 772 mmHg 44%
    16:00 +5°C° 0 mm 4 mps 771 mmHg 49%
    17:00 +4°C° 0 mm 4 mps 771 mmHg 53%
    18:00 +3°C° 0 mm 4 mps 771 mmHg 57%
    19:00 +2°C° 0 mm 3 mps 771 mmHg 60%
    20:00 +2°C° 0 mm 3 mps 771 mmHg 63%
    21:00 +1°C° 0 mm 3 mps 770 mmHg 68%
    22:00 +1°C° 0 mm 3 mps 770 mmHg 72%
    23:00 +1°C° 0 mm 3 mps 770 mmHg 76%

    Day after tomorrow, 25 January, Saturday

    Time Temperature Precipitation Wind Pressure Humidity
    00:00 +1°C° 0 mm 3 mps 769 mmHg 79%
    01:00 0°C° 0 mm 3 mps 769 mmHg 82%
    02:00 0°C° 0 mm 3 mps 768 mmHg 85%
    03:00 0°C° 0 mm 3 mps 768 mmHg 86%
    04:00 0°C° 0 mm 3 mps 768 mmHg 88%
    05:00 0°C° 0 mm 3 mps 767 mmHg 89%
    06:00 0°C° 0 mm 3 mps 767 mmHg 89%
    07:00 0°C° 0 mm 3 mps 767 mmHg 88%
    08:00 0°C° 0 mm 3 mps 767 mmHg 87%
    09:00 +1°C° 0 mm 4 mps 767 mmHg 78%
    10:00 +4°C° 0 mm 4 mps 767 mmHg 68%
    11:00 +7°C° 0 mm 4 mps 767 mmHg 59%
    12:00 +8°C° 0 mm 4 mps 767 mmHg 56%
    13:00 +10°C° 0 mm 4 mps 766 mmHg 53%
    14:00 +11°C° 0 mm 4 mps 766 mmHg 49%
    15:00 +10°C° 0 mm 3 mps 766 mmHg 55%
    16:00 +9°C° 0 mm 3 mps 765 mmHg 60%
    17:00 +7°C° 0 mm 3 mps 765 mmHg 65%
    18:00 +7°C° 0 mm 3 mps 766 mmHg 67%
    19:00 +5°C° 0 mm 3 mps 766 mmHg 70%
    20:00 +5°C° 0 mm 2 mps 766 mmHg 72%
    21:00 +5°C° 0 mm 2 mps 766 mmHg 72%
    22:00 +5°C° 0 mm 2 mps 766 mmHg 73%
    23:00 +5°C° 0 mm 2 mps 766 mmHg 73%

    26 January, Sunday

    Time Temperature Precipitation Wind Pressure Humidity
    00:00 +5°C° 0 mm 2 mps 766 mmHg 73%
    01:00 +5°C° 0 mm 2 mps 766 mmHg 73%
    02:00 +4°C° 0 mm 2 mps 766 mmHg 73%
    03:00 +4°C° 0 mm 2 mps 766 mmHg 74%
    04:00 +4°C° 0 mm 2 mps 766 mmHg 76%
    05:00 +4°C° 0 mm 2 mps 766 mmHg 77%
    06:00 +4°C° 0 mm 2 mps 767 mmHg 76%
    07:00 +4°C° 0 mm 2 mps 767 mmHg 75%
    08:00 +4°C° 0 mm 2 mps 767 mmHg 75%
    09:00 +6°C° 0 mm 2 mps 767 mmHg 67%
    10:00 +8°C° 0 mm 2 mps 768 mmHg 59%
    11:00 +10°C° 0 mm 2 mps 768 mmHg 51%
    12:00 +12°C° 0 mm 2 mps 768 mmHg 49%
    13:00 +13°C° 0 mm 1 mps 767 mmHg 46%
    14:00 +14°C° 0 mm 1 mps 767 mmHg 44%
    15:00 +13°C° 0 mm 1 mps 767 mmHg 49%
    16:00 +12°C° 0 mm 1 mps 767 mmHg 54%
    17:00 +10°C° 0 mm 1 mps 767 mmHg 60%
    18:00 +10°C° 0 mm 1 mps 767 mmHg 64%
    19:00 +9°C° 0 mm 1 mps 767 mmHg 68%
    20:00 +7°C° 0 mm 2 mps 767 mmHg 72%
    21:00 +7°C° 0 mm 2 mps 767 mmHg 74%
    22:00 +7°C° 0 mm 1 mps 767 mmHg 76%
    23:00 +7°C° 0 mm 1 mps 767 mmHg 79%

    27 January, Monday

    Time Temperature Precipitation Wind Pressure Humidity
    00:00 +7°C° 0 mm 1 mps 767 mmHg 80%
    01:00 +7°C° 0 mm 1 mps 767 mmHg 81%
    02:00 +7°C° 0 mm 1 mps 767 mmHg 83%
    03:00 +7°C° 0 mm 1 mps 766 mmHg 83%
    04:00 +7°C° 0 mm 1 mps 766 mmHg 84%
    05:00 +7°C° 0 mm 1 mps 766 mmHg 84%
    06:00 +7°C° 0.2 mm 1 mps 766 mmHg 85%
    07:00 +7°C° 0.2 mm 1 mps 766 mmHg 86%
    08:00 +8°C° 0.2 mm 1 mps 766 mmHg 87%
    09:00 +8°C° 0.1 mm 1 mps 766 mmHg 88%
    10:00 +8°C° 0.1 mm 1 mps 766 mmHg 89%
    11:00 +9°C° 0.1 mm 1 mps 766 mmHg 90%
    12:00 +9°C° 0.1 mm 1 mps 766 mmHg 89%
    13:00 +10°C° 0.1 mm 1 mps 765 mmHg 89%
    14:00 +10°C° 0.1 mm 1 mps 765 mmHg 88%
    15:00 +10°C° 0 mm 1 mps 765 mmHg 90%
    16:00 +10°C° 0 mm 1 mps 765 mmHg 91%
    17:00 +10°C° 0 mm 1 mps 765 mmHg 92%
    18:00 +9°C° 0.1 mm 0 mps 765 mmHg 93%
    19:00 +8°C° 0.1 mm 0 mps 765 mmHg 95%
    20:00 +8°C° 0.1 mm 0 mps 765 mmHg 96%
    21:00 +8°C° 0.2 mm 0 mps 765 mmHg 95%
    22:00 +8°C° 0.2 mm 0 mps 765 mmHg 95%
    23:00 +8°C° 0.2 mm 0 mps 765 mmHg 95%

    28 January, Tuesday

    Time Temperature Precipitation Wind Pressure Humidity
    00:00 +8°C° 0 mm 0 mps 765 mmHg 95%
    01:00 +9°C° 0 mm 1 mps 764 mmHg 95%
    02:00 +9°C° 0 mm 1 mps 764 mmHg 95%
    03:00 +9°C° 0.3 mm 1 mps 764 mmHg 95%
    04:00 +9°C° 0.3 mm 1 mps 764 mmHg 96%
    05:00 +8°C° 0.3 mm 2 mps 764 mmHg 96%
    06:00 +8°C° 0.2 mm 2 mps 765 mmHg 95%
    07:00 +8°C° 0.2 mm 2 mps 765 mmHg 93%
    08:00 +8°C° 0.2 mm 2 mps 765 mmHg 92%
    09:00 +9°C° 0.2 mm 1 mps 765 mmHg 90%
    10:00 +9°C° 0.2 mm 1 mps 765 mmHg 88%
    11:00 +9°C° 0.2 mm 1 mps 766 mmHg 86%
    12:00 +10°C° 0 mm 1 mps 765 mmHg 85%
    13:00 +10°C° 0 mm 1 mps 765 mmHg 83%
    14:00 +10°C° 0 mm 1 mps 765 mmHg 82%
    15:00 +10°C° 0 mm 1 mps 765 mmHg 84%
    16:00 +10°C° 0 mm 1 mps 765 mmHg 85%
    17:00 +8°C° 0 mm 0 mps 765 mmHg 86%
    18:00 +8°C° 0 mm 0 mps 765 mmHg 87%
    19:00 +9°C° 0 mm 1 mps 765 mmHg 88%
    20:00 +8°C° 0 mm 1 mps 765 mmHg 89%
    21:00 +7°C° 0 mm 0 mps 765 mmHg 90%
    22:00 +7°C° 0 mm 0 mps 766 mmHg 91%
    23:00 +6°C° 0 mm 0 mps 766 mmHg 91%
    Show more